Regional Weather Roundup
Issued by NWS Wakefield, VA

Home | Current Version | Previous Version | Text Only | Print | Product List | Glossary On
Versions: 1 2 3 4 5 6 7 8 9 10 11 12 13 14 15 16 17 18 19 20 21 22 23 24 25 26 27
000
ASUS41 KAKQ 190114
RWRAKQ

REGIONAL WEATHER ROUNDUP
NATIONAL WEATHER SERVICE WAKEFIELD VA
800 PM EST WED JAN 18 2017

Note: "fair" indicates few or no clouds below 12,000 feet with no
significant weather and/or obstructions to visibility. * = Denotes
station may not report precipitation (e.g., rain,snow,etc.),
thunder or fog.

VAZ042-051-052>054-056-190200-
NORTHERN VIRGINIA

CITY           SKY/WX    TMP DP  RH WIND       PRES   REMARKS
WASH NATIONAL  PTCLDY    49  36  61 NW13      30.09R
DULLES         PTCLDY    45  33  63 N7        30.09R
FORT BELVOIR   CLEAR     48  34  58 NW12      30.08R
QUANTICO       CLEAR     49  37  63 NE10G23   30.09R
FREDERICKSBRG* CLEAR     50  38  64 N7        30.06R
STAFFORD*      CLEAR     47  36  65 N9        30.11R
WARRENTON      CLEAR     47  33  58 N13       30.07R
CULPEPER*      CLEAR     45  36  71 N6        30.09R
MANASSAS*      CLEAR    N/A N/A N/A N6        30.10R
LEESBURG*      PTCLDY    45  37  76 N6        30.10R
WINCHESTER     CLOUDY    43  34  70 NW6       30.09S
FRONT ROYAL*   FAIR      43  34  70 NE3       30.08R
LURAY*         FAIR      43  36  75 NE6       30.06S
$$

VAZ048-049-060>072-079>083-190200-
CENTRAL AND SOUTH CENTRAL VIRGINIA

CITY           SKY/WX    TMP DP  RH WIND       PRES   REMARKS
RICHMOND       CLEAR     50  38  63 NE8       30.04R
CHESTERFIELD*  FAIR      48  25  40 NE5       30.05S
PETERSBURG*    CLEAR     39  36  87 CALM      30.05R
HANOVER        CLEAR     47  35  63 NE3       30.06R
TAPPAHANNOCK*  CLEAR     50  31  48 N3        30.06R
QUINTON*       FAIR      51  38  60 NE7       30.04R
CHARLOTTSVILLE CLEAR     50  35  56 N6        30.05R
GORDONSVILLE*  FAIR      43  37  80 NE3       30.05R
ORANGE*          N/A     46  36  66 N5        30.08R
LOUISA*        CLEAR     52  39  62 NE7       30.05R
BUMPASS*       FAIR      48  37  65 CALM      30.05R
FARMVILLE*     CLEAR     45  38  75 CALM      30.03S
CREWE*         FAIR      43  40  90 CALM      30.04R
FORT PICKETT*  FAIR      42  35  76 S5        30.04R
CHASE CITY*    FAIR      44  38  79 W3        30.04S
CLARKSVILLE*   FAIR      52  34  50 NW3       30.04S
SOUTH HILL*    CLEAR     46  37  70 CALM      30.09S
LAWRENCEVILLE* FAIR      46  37  72 CALM      30.04R
EMPORIA*       CLEAR     41  36  81 CALM      30.05S
$$

VAZ088>098-190200-
SOUTHEAST VIRGINIA

CITY           SKY/WX    TMP DP  RH WIND       PRES   REMARKS
NORFOLK        CLEAR     47  42  83 N3        30.03R
VIRGINIA BEACH PTCLDY    42  40  92 N6        30.02S
NORFOLK NAVAL  CLEAR     44  41  89 CALM      30.05R
WEST POINT*    CLEAR     49  36  59 CALM      30.06S
SALUDA*        FAIR      44  42  91 CALM      30.04R
NEWPORT NEWS   CLEAR     42  41  96 N3        30.04R
LANGLEY AFB    CLEAR     43  42  97 CALM      30.03R
FORT EUSTIS    CLEAR     43  40  88 CALM      30.02R
WILLIAMSBURG*  CLEAR     46  45  93 CALM      30.05R
HR EXEC AP*    FAIR      37  34  87 CALM      30.02S VSB 1
FRANKLIN*      CLEAR     46  44  93 CALM      30.04S
US460-WAKEFLD  CLEAR     45  44  97 CALM      30.04R
$$

VAZ020-022-025-037-045-190200-
WEST CENTRAL AND SOUTHWEST VIRGINIA

CITY           SKY/WX    TMP DP  RH WIND       PRES   REMARKS
STAUNTON*      CLEAR     40  32  73 N5        30.08R
WAYNESBORO*    FAIR      46  33  61 SW3       30.06R
HOT SPRINGS VA PTCLDY    36  36 100 W14       30.02R
LYNCHBURG      CLEAR     42  35  76 CALM      30.06R
DANVILLE       CLEAR     48  37  65 VRB3      30.06R
SOUTH BOSTON*  FAIR      51  33  50 NW7       30.05S
MARTINSVILLE   CLEAR     46  35  65 N3        30.09S
ROANOKE        CLEAR     46  36  68 W8        30.10S
BLACKSBURG     CLOUDY    42  37  82 W7        30.13R
DUBLIN*        CLOUDY    43  37  78 W3        30.12R
MARION*        CLOUDY    44  37  77 W3        30.13S
HILLSVILLE*    CLOUDY    40  36  86 CALM      30.08S
RICHLANDS*     FAIR     N/A N/A N/A CALM      30.11F
WISE*          CLOUDY    39  39 100 CALM      30.12S
ABINGDON*      CLOUDY    45  40  81 CALM      30.10F
$$

MDZ021>025-VAZ099-100-190200-
SOUTHERN MARYLAND AND THE DELMARVA PENINSULA

CITY           SKY/WX    TMP DP  RH WIND       PRES   REMARKS
PATUXENT RIVER MOCLDY    51  39  63 N9        30.04R
BAY BRIDGE APT CLOUDY    46  37  71 NW9       30.05S
LEONARDTOWN    PTCLDY    50  36  57 NW5       30.07R
DOVER          CLOUDY    47  47 100 N8        30.03S
GEORGETOWN     CLOUDY    49  42  77 NE6       30.04R
EASTON         CLOUDY    50  41  71 CALM      30.08S
CAMBRIDGE      CLOUDY    50  41  71 N3        30.04S
SALISBURY      CLOUDY    51  41  68 N8        30.04R
OCEAN CITY     CLOUDY    48  43  82 N7        30.04R
WALLOPS ISLAND CLOUDY    51  43  74 N8        30.04R
ACCOMACK*      CLOUDY    49  43  78 N5        30.03S
$$

NCZ012>017-030>032-190200-
NORTH CENTRAL AND EASTERN NORTH CAROLINA

CITY           SKY/WX    TMP DP  RH WIND       PRES   REMARKS
ROANOKE RAPIDS FAIR      48  36  61 CALM      30.04R
RALEIGH        PTCLDY    53  35  50 NE3       30.04R
ELIZABETH CITY CLEAR     44  43  96 W3        30.04R
AHOSKIE*         N/A     46  45  95 CALM      30.04S
EDENTON*       PTCLDY    51  46  80 CALM      30.05R
CURRITUCK*     CLEAR     47  46  97 NW3       30.04R
KILL DEVIL HLS NOT AVBL
MANTEO         CLEAR     46  46  97 CALM      30.03S
CAPE HATTERAS  PTCLDY    50  46  86 VRB6      30.00S
TARBORO*       NOT AVBL
GOLDSBORO      CLEAR     53  38  56 CALM      30.01R
WASHINGTON     CLEAR     46  43  89 CALM        N/A
GREENVILLE     CLEAR     50  43  76 E5        30.05R
NEW BERN       CLEAR     49  44  83 CALM      30.05R
WILMINGTON     CLEAR     56  41  57 NE6       30.02R
$$

VAZ048-190200-
ELSEWHERE

CITY           SKY/WX    TMP DP  RH WIND       PRES   REMARKS
HARRISBURG PA  CLOUDY    45  37  73 NW7       30.05R
BALTIMORE      MOCLDY    49  37  63 W13       30.06R
ANNAPOLIS      CLOUDY    51  37  58 NW9       30.06R
ANDREWS AFB    CLOUDY    47  35  63 NW13      30.06R
PHILADELPHIA   CLOUDY    46  39  76 N9        30.04F
HENDERSON NC   CLEAR     48  32  54 CALM      30.04S
GREENSBORO     PTCLDY    52  37  56 NE5       30.05R
ROCKY MOUNT    CLEAR     46  40  79 CALM      30.04R
$$

VAZ100-190200-
MARINE

STATION/POSITION TIME  TEMP    WIND        PRES    WAVE   SWELL
                       AIR SEA DIR/SP/G            HT/PER HT/PER
                 (UTC) (F)     (DEG/KT/KT) (MB)    (FT/S) (FT/S)
CAPE MAY NJ      0048   44 40  350/  4/ 10 1016.9R
LEWES DE         0048   44 41   30/  8/ 10 1017.2R
OCEAN-CITY-INLET 0048   47 43   30/  8/ 14 1017.3R
WACHAPREAGUE VA  0048   50 51  330/  2/  5 1016.9R
THOMAS POINT MD  0100   51 39  320/ 11/ 13   N/A
GOOSES REEF MD   0050   46     340/  8/ 10 1018.0R
COVE POINT MD    0048   45     350/  8/ 11 1018.0R
SOLOMONS ISLAND  0048   52 42  340/  9/ 13   N/A
BISHOPS HEAD MD  0048   51 44  350/  4/  7 1017.6R
PINEY POINT MD   0042           10/  8/  9   N/A
POTOMAC MD       0050   51     360/  8/ 10 1016.3R
CAMBRIDGE MD     0048   47 40  350/  3/  5 1016.7R
LEWISETTA VA     0048   51 42  350/  7/  9 1017.1R
RAPPAHANNOCK LGT 0042          330/ 10/ 11 1017.6R
STINGRAY PT      0050   45     350/  4/  6 1017.5R
YORK RVR RNG VA  0048   48     340/  4/  5 1016.4R
YORKTOWN VA      0048   45 44  250/  2/  3 1016.8R
JAMESTOWN VA     0050   47     240/  2/  2   N/A
DOMINION TERM VA 0048   48      30/  2/  3 1017.0R
KIPTOPEKE VA     0048      43  360/  5/  7   N/A
CHES BAY BRIDGE  0048   46 43  330/  6/  7 1016.9R
CAPE HENRY VA    0048   47     320/  8/  9   N/A
WILLOUBY STN VA  0048   50     360/  6/  7 1017.8R
S CRANEY ISL VA  0048   47     350/  4/  4 1016.8R
CAPE HENRY BUOY  0042      47                N/A     1/ 8
OFFSHORE WE BUOY 0051      49                N/A     2/ 7
64NM E OF VA BCH 0050   52 56  350/ 17/ 21 1015.6R   4/ 6   2/ 8
DUCK PIER NC     0048   48 46  330/ 10/ 10 1016.1R
44100 DUCK FRF   0005      48                N/A     2/ 8
44056 DUCK FRF   0030      46                N/A     2/ 7
OREGON INLET NC  0042   47 51  350/  6/  8 1016.3R
HATTERAS NC      0048   50 55   10/ 13/ 15 1015.7R
DIAMOND SHLS NC  0050   57 72   20/ 25/ 31 1015.0R   5/ 6
CAPE LOOKOUT NC  0000   53      10/ 13/ 17 1016.3R
$$




USA.gov is the U.S. government's official web portal to all federal, state and local government web resources and services.